Wind_Speed
13 14 14 12 10 11 10 12 16 18 21 23 24 24 23 22 22 21 22 20 16 17 19 18 18 19 19 20 21 21 21 22 22 21 21 20 20 21 21 21 23 25 24 23 22 23 24 26 26 25 24 23 23 24 24 24 24 24 24 24 23 21 21
13 13 14 12 10 10 10 11 14 16 18 20 22 23 22 21 20 20 20 18 15 15 17 17 18 19 20 21 21 21 22 22 22 21 20 20 20 20 21 23 25 24 23 23 23 23 24 25 26 26 25 24 23 23 24 24 24 25 25 25 25 24 22
16 13 13 13 10 9 10 10 12 14 16 18 19 21 21 20 19 19 19 17 14 14 15 16 17 19 20 21 21 22 22 22 21 19 19 20 20 21 21 21 22 22 22 24 24 23 22 23 24 24 24 24 23 23 24 24 23 24 25 27 27 25 24
18 15 13 12 9 9 9 9 11 13 14 16 17 17 17 18 18 17 17 16 15 16 17 18 19 19 20 21 22 23 23 22 20 18 18 19 19 20 20 19 20 21 22 24 24 22 21 21 22 23 23 23 23 23 24 22 21 22 25 27 28 27 25
18 15 14 13 10 9 8 8 10 11 13 14 15 15 14 15 15 15 14 15 16 17 19 19 20 21 20 21 22 23 23 23 21 18 18 18 18 19 20 19 20 21 22 24 23 20 20 21 22 22 22 21 22 23 24 22 20 20 23 26 28 28 26
16 14 15 15 11 8 7 6 8 10 11 13 14 14 13 13 13 12 12 13 15 17 19 20 20 20 20 21 22 22 22 22 19 18 17 18 18 19 19 20 21 22 22 23 21 20 19 19 20 20 19 20 21 24 24 23 20 19 21 25 28 28 27
13 13 14 15 11 9 7 4 5 8 10 11 13 13 12 13 11 10 10 11 12 15 19 20 20 20 21 22 22 21 22 21 18 17 16 17 18 18 19 20 20 21 22 21 19 19 18 17 19 19 19 19 21 23 24 23 21 19 20 24 27 28 27
12 11 13 14 13 10 8 3 3 6 8 10 12 13 12 13 12 9 8 7 8 10 15 19 20 21 22 22 21 21 21 21 18 17 17 17 17 18 19 19 19 20 21 20 18 18 18 17 19 19 18 18 19 21 22 22 21 20 19 22 26 27 27
13 11 12 13 13 11 9 5 2 4 6 8 11 12 12 12 12 10 7 5 5 5 9 15 19 20 21 21 20 20 20 20 20 18 17 17 18 17 18 19 19 20 21 19 18 19 19 18 19 18 17 17 18 19 20 20 20 19 20 22 24 26 26
15 13 11 12 13 13 11 7 2 2 5 7 8 10 11 11 11 9 6 4 4 4 6 9 13 16 18 19 19 19 19 20 20 19 18 17 17 16 17 18 19 20 22 20 18 19 19 18 18 18 16 16 16 17 18 19 20 20 20 22 24 25 26
14 13 10 11 14 16 13 8 3 0 3 5 6 8 9 9 9 8 6 4 2 4 6 7 10 15 18 19 19 18 18 18 18 17 18 17 17 17 18 18 19 20 21 20 18 18 18 17 19 19 17 16 16 17 18 19 20 21 21 22 23 24 25
13 12 10 10 13 15 13 10 6 2 0 3 5 6 6 7 7 7 6 4 2 4 7 11 14 17 18 16 16 16 15 15 15 16 17 17 17 17 18 19 19 19 20 19 19 21 20 19 20 20 18 17 17 17 18 20 21 22 23 23 23 23 23
11 11 11 11 11 11 11 11 10 7 3 1 3 4 4 3 4 5 6 5 4 4 5 8 13 16 16 14 13 13 13 14 14 15 15 15 16 16 17 18 17 18 20 19 18 21 21 19 19 20 19 18 18 18 19 21 22 22 23 23 22 22 23
10 10 11 10 9 9 9 9 11 10 7 3 0 2 1 1 2 3 5 6 5 4 4 5 10 14 14 14 13 13 14 14 14 14 14 14 15 16 17 17 16 18 20 18 16 19 20 19 19 20 20 19 19 19 20 21 22 22 22 21 21 21 22
9 9 9 9 7 6 7 8 10 10 8 6 3 3 4 4 3 2 4 6 5 3 3 5 10 13 14 15 15 15 14 13 14 15 14 14 15 16 16 16 17 18 19 18 18 19 19 19 19 20 20 19 19 19 20 20 21 21 20 20 21 21 21
6 7 8 7 6 6 7 9 10 10 7 5 6 7 8 8 6 3 5 7 5 5 4 4 8 13 16 16 16 15 14 13 14 14 13 14 15 16 16 16 17 18 18 18 19 20 19 19 20 20 21 20 20 19 20 20 21 21 21 21 21 21 21
8 7 7 7 6 6 8 10 10 8 6 6 7 7 7 8 8 8 9 9 7 6 6 5 4 8 14 16 15 15 14 14 15 14 14 15 15 16 16 15 16 18 18 18 18 19 19 19 20 21 21 21 20 20 20 22 22 22 21 21 21 21 22
8 8 8 8 7 7 8 9 9 7 6 6 5 5 6 8 10 11 11 9 6 5 6 7 6 5 9 14 15 15 16 16 16 15 15 15 16 16 16 15 16 18 18 17 17 17 18 18 20 21 21 21 20 20 21 22 23 22 21 21 21 22 22
9 9 9 8 7 8 9 8 6 6 7 6 6 6 6 7 9 9 10 8 6 4 4 5 6 6 5 10 14 16 16 16 16 17 17 17 17 17 17 16 15 17 17 17 17 17 17 18 19 19 20 20 20 20 21 21 22 22 22 22 22 22 22
9 10 9 8 7 9 10 7 6 5 6 7 7 6 7 7 7 8 9 8 7 5 4 3 3 5 5 5 11 16 18 18 18 18 17 17 16 16 17 17 15 16 17 16 16 17 17 17 18 19 20 21 21 21 22 22 23 23 23 23 24 24 23
9 10 9 7 7 9 10 9 7 6 6 7 6 6 6 6 6 7 8 8 7 6 5 3 3 4 4 4 6 12 16 20 21 20 17 17 16 16 17 19 18 18 19 18 17 18 18 17 18 19 20 21 22 22 22 23 23 23 24 25 25 25 24
8 10 8 6 7 9 9 8 7 7 6 6 6 6 5 5 5 5 6 7 6 6 5 4 3 4 5 5 5 7 11 16 20 20 19 18 18 19 19 19 19 19 20 19 18 18 18 19 19 20 21 21 22 22 22 23 24 24 25 25 25 25 25
7 8 8 7 8 10 9 7 7 7 6 6 7 6 5 5 4 4 5 5 5 5 5 5 5 5 6 7 7 7 9 11 13 17 20 21 21 22 21 19 19 20 20 19 19 19 19 19 20 21 21 22 22 23 23 23 24 25 24 24 25 25 25
9 7 9 9 9 10 8 7 8 7 6 6 6 5 5 5 4 4 4 5 5 5 5 6 6 7 8 9 8 7 8 8 9 11 17 22 24 25 23 21 21 21 22 21 20 20 19 19 20 20 21 22 23 24 24 25 25 25 25 25 26 27 26
12 10 10 11 11 10 9 8 8 8 7 6 5 5 5 5 4 4 4 5 5 6 6 7 7 8 9 10 11 9 6 6 7 9 12 16 21 25 26 24 23 24 25 25 24 23 22 21 21 21 22 23 24 24 25 26 26 26 25 26 27 27 27
13 10 11 13 13 12 11 10 9 8 8 8 6 6 6 6 6 6 5 5 5 6 6 7 8 9 10 11 12 12 7 4 6 9 10 10 12 17 21 23 25 27 28 28 27 26 25 24 24 24 25 25 25 26 26 27 27 26 26 27 27 27 27
12 10 12 14 13 13 13 12 11 9 8 8 8 8 7 7 7 7 6 6 6 6 6 7 9 10 11 12 12 12 9 6 5 7 10 11 11 12 15 18 23 27 29 30 30 29 29 28 27 27 28 28 27 28 28 28 27 27 27 28 28 28 28
13 12 13 13 12 12 13 13 13 11 8 8 9 9 9 8 8 8 8 8 8 7 7 7 8 10 12 13 13 13 12 9 6 7 9 10 11 11 12 14 16 19 22 25 27 29 30 31 31 31 31 31 30 30 30 30 29 29 30 31 31 31 31
14 14 15 14 13 12 12 13 13 12 9 9 9 9 10 9 9 9 9 9 9 9 9 8 9 10 11 12 13 14 14 12 10 9 9 9 10 11 12 13 14 15 17 18 21 23 25 27 29 31 33 34 34 34 33 33 33 33 33 34 34 35 34
17 17 17 15 13 12 13 13 13 11 10 10 10 10 10 10 10 10 10 10 10 10 11 10 10 11 11 12 13 14 14 14 12 11 11 11 11 11 12 13 15 16 17 18 19 20 21 22 24 25 28 31 34 35 36 36 36 36 36 36 37 38 38
22 20 18 15 14 13 13 13 12 11 11 11 10 10 10 10 11 10 10 11 11 11 12 12 12 12 12 12 13 13 14 14 14 13 13 13 13 13 13 14 15 15 16 17 18 20 21 22 23 23 23 25 27 30 33 35 37 38 39 39 40 40 40
24 23 20 17 15 14 13 13 13 12 12 12 11 11 10 10 11 11 11 12 12 12 13 13 13 13 13 13 14 14 14 14 14 14 14 14 15 15 15 15 16 16 17 17 18 19 21 22 23 24 24 24 25 26 28 30 32 34 37 39 40 40 41
25 24 21 18 16 15 14 13 14 14 13 12 12 11 11 11 11 12 12 12 13 13 14 14 14 15 15 15 15 15 15 15 15 16 16 16 16 16 16 17 17 18 18 19 19 20 21 22 23 24 24 25 26 27 28 29 30 31 33 35 36 36 37
24 24 22 19 17 15 14 14 15 15 14 14 13 12 11 12 12 12 13 13 13 14 14 15 15 16 16 16 16 16 17 17 16 16 17 17 18 18 18 18 19 19 20 20 21 22 23 23 24 24 25 26 27 27 29 30 31 32 32 33 34 34 35
24 24 23 21 18 16 15 15 15 15 15 15 14 13 13 13 13 13 13 14 14 15 15 16 16 16 17 17 18 18 18 18 18 17 17 18 19 19 20 20 20 20 21 22 23 23 24 24 25 26 26 27 28 28 30 31 32 33 33 34 35 35 35
23 24 23 22 19 17 16 15 15 16 16 15 15 14 14 14 14 14 14 15 16 16 16 16 17 17 17 18 18 19 19 19 19 18 18 18 19 20 20 21 21 21 22 23 24 24 25 25 26 27 27 28 29 30 30 31 33 34 34 35 36 36 37
24 24 23 23 21 19 18 16 15 16 16 15 15 15 15 15 15 15 15 16 17 17 17 18 18 17 18 18 18 19 20 20 19 19 20 20 19 19 19 20 21 22 22 22 23 24 25 25 26 27 27 28 29 30 31 32 33 34 35 36 36 37 37
26 25 24 23 22 21 19 17 16 16 16 16 16 15 15 15 15 15 15 16 17 18 18 18 18 18 18 18 18 19 20 20 20 20 20 20 20 19 19 19 20 21 21 22 22 23 23 24 25 26 26 27 28 29 31 32 33 35 36 37 37 37 38
Wind_Direction
286 280 280 281 289 300 305 310 310 308 307 302 299 296 291 288 283 279 280 280 275 271 268 256 241 241 246 248 245 240 238 233 225 226 229 228 231 233 231 228 223 219 218 220 220 220 221 223 223 224 226 227 229 231 230 230 228 223 220 222 223 219 218
278 275 285 285 288 303 308 312 316 315 311 306 303 299 294 289 284 280 279 274 270 272 269 260 252 247 243 241 239 237 235 227 222 226 229 229 233 234 233 230 224 219 217 219 223 224 221 222 224 226 226 226 228 229 228 229 229 224 220 220 222 221 220
279 274 279 280 284 300 306 314 322 320 316 311 308 303 297 291 284 279 277 269 263 271 275 271 260 247 240 238 236 235 231 223 221 225 226 228 232 233 234 234 227 223 221 219 221 225 224 222 225 227 227 226 226 225 224 225 227 225 221 220 220 220 220
284 278 277 278 282 292 305 325 329 325 322 319 315 310 304 296 288 283 279 269 259 263 271 271 262 250 244 238 234 234 229 222 222 224 225 229 233 231 233 236 230 226 226 222 219 222 224 224 225 227 228 227 225 223 219 221 225 226 224 220 219 219 220
283 282 282 279 281 289 301 328 337 332 330 329 329 325 315 307 298 290 283 271 261 260 263 264 258 251 244 239 236 234 228 223 221 223 226 229 231 233 235 233 224 221 224 223 220 220 222 223 224 226 228 227 224 221 219 222 228 230 227 223 219 219 220
286 292 287 277 278 288 294 325 343 340 337 340 344 341 332 322 310 295 286 278 267 259 255 253 249 243 239 237 235 230 224 220 219 221 226 227 227 231 232 225 217 218 223 222 219 218 219 220 223 225 226 225 223 221 222 227 232 234 230 226 222 220 220
290 293 286 280 282 279 274 300 346 345 346 352 357 356 349 338 325 303 286 280 273 259 247 240 235 232 231 230 225 220 217 217 218 222 227 228 226 226 227 222 217 221 224 222 219 218 218 219 221 221 220 220 221 222 223 228 234 235 231 226 223 222 222
292 291 286 288 290 284 276 287 2 360 354 1 8 9 2 352 343 325 296 284 285 264 241 232 229 226 223 219 214 212 213 213 217 222 225 228 228 226 226 224 220 221 221 220 219 215 214 218 219 216 216 218 219 220 222 227 233 234 229 224 222 222 223
301 298 290 289 291 289 286 291 340 13 3 9 18 18 13 5 358 346 323 303 295 268 237 228 226 219 211 208 208 208 210 214 218 220 223 226 227 225 225 224 223 221 220 220 215 211 213 219 218 215 215 218 220 220 223 228 233 233 227 223 221 221 223
302 296 291 289 286 278 272 271 282 11 16 19 23 23 21 16 10 1 346 324 291 255 230 221 219 212 205 204 204 203 206 212 215 219 222 224 223 222 222 223 223 221 221 221 215 212 216 218 216 216 217 219 222 223 224 229 232 231 225 222 220 220 222
300 293 289 288 282 277 276 276 273 347 36 32 30 27 24 20 15 10 1 345 293 240 218 207 211 213 208 204 202 203 205 207 209 214 218 221 220 218 217 218 218 219 219 219 217 216 219 218 216 216 217 221 225 226 226 228 230 228 224 223 221 221 222
308 297 285 279 279 286 295 302 302 288 107 60 48 36 24 18 12 6 1 353 308 239 213 208 212 213 210 204 202 206 209 208 209 211 214 217 216 214 215 214 214 219 219 216 215 214 215 217 216 215 217 221 225 227 227 228 229 227 224 222 222 222 223
309 295 281 275 282 296 307 314 313 299 278 97 84 64 33 18 0 349 349 347 324 285 241 222 214 208 205 204 205 211 213 210 209 209 210 213 209 209 214 212 213 220 218 215 214 211 211 215 213 214 217 220 224 227 228 227 228 226 224 223 224 225 225
297 288 283 281 289 302 308 309 308 306 306 303 171 100 59 358 334 330 339 346 334 316 299 247 217 205 204 204 205 214 216 209 207 208 208 207 204 207 212 212 215 218 214 215 216 213 216 219 213 214 218 219 221 226 227 226 225 223 223 224 226 227 227
292 285 284 280 284 300 300 288 287 291 287 281 292 343 348 340 326 318 348 352 337 326 314 252 226 217 214 209 204 210 214 207 203 205 205 206 205 207 212 212 212 214 213 216 217 216 219 220 215 216 219 219 221 226 228 225 222 220 221 223 226 228 228
303 285 277 273 280 294 290 275 273 276 278 305 351 354 343 335 317 319 18 20 357 343 336 279 239 226 222 214 202 204 213 213 206 204 207 210 208 208 212 211 209 212 216 215 214 216 218 218 217 219 220 222 223 225 226 222 217 217 219 220 223 225 225
310 292 277 273 275 283 285 276 275 285 311 348 1 344 324 322 320 337 13 29 18 359 350 333 288 239 228 222 210 207 213 215 212 210 210 209 208 210 213 211 210 213 214 213 214 219 221 218 218 222 224 225 226 223 221 217 214 215 217 220 224 226 226
313 299 282 272 269 269 273 276 285 315 344 353 350 338 330 333 337 342 353 9 17 10 359 349 336 295 244 227 218 214 215 215 212 212 210 207 208 211 211 212 215 215 213 216 222 226 224 220 220 224 226 226 224 220 216 213 212 216 220 223 227 229 229
317 301 281 272 276 274 271 282 306 331 346 347 344 347 346 345 346 340 336 344 2 12 5 352 340 328 279 233 220 217 219 218 213 209 208 209 212 215 212 211 216 218 216 218 224 226 224 220 219 220 221 220 217 213 210 210 213 218 223 226 228 231 233
311 297 284 280 285 280 280 302 334 334 331 337 341 350 358 357 352 340 332 339 357 6 1 353 331 324 316 266 232 225 225 226 223 218 212 212 217 222 222 218 216 220 223 220 221 222 220 217 214 213 212 211 210 209 209 211 215 220 224 227 229 232 234
295 289 285 283 285 284 289 312 339 340 331 335 343 354 4 5 357 343 333 335 351 359 357 354 319 292 302 298 256 238 234 231 230 227 218 213 216 220 225 225 221 219 221 218 216 218 216 213 213 213 212 212 212 214 216 217 219 221 224 226 230 232 234
295 295 298 301 297 291 294 313 331 334 334 341 349 352 358 3 358 343 327 325 336 343 342 337 314 283 276 279 278 268 254 241 235 230 221 216 218 218 221 229 231 227 224 220 218 219 218 215 215 216 218 219 221 223 224 225 225 226 226 228 232 235 236
302 300 302 304 291 285 294 316 326 329 339 349 349 346 349 355 350 331 317 313 315 320 320 314 305 293 277 269 271 276 275 267 254 239 228 222 223 222 222 228 236 236 234 230 226 226 225 223 222 222 222 223 225 227 228 230 231 231 231 233 235 238 240
304 300 298 293 285 288 304 322 322 325 338 345 343 341 340 342 334 318 307 299 297 301 301 299 297 292 284 278 272 262 258 266 268 253 238 231 230 231 228 227 233 238 239 238 234 231 229 228 228 228 228 228 229 229 230 231 232 232 233 233 235 237 241
296 296 300 301 300 305 314 320 316 318 327 333 335 334 328 321 312 305 300 293 290 288 285 285 285 283 282 281 277 269 252 244 255 260 250 238 234 234 232 227 230 237 240 240 238 235 232 230 230 231 232 233 233 232 233 234 234 235 235 237 239 240 243
284 295 312 316 318 319 318 317 315 314 320 323 321 319 313 307 302 301 301 297 288 278 275 276 276 275 274 272 275 279 278 263 264 271 272 266 253 243 238 233 233 237 240 242 242 241 239 237 234 233 234 235 235 235 235 236 236 237 238 240 243 245 246
288 309 320 318 320 320 318 317 313 309 311 311 308 306 302 299 297 297 297 295 290 282 274 270 268 271 273 274 278 282 281 276 273 271 269 271 268 258 249 243 240 240 242 244 246 246 246 244 241 239 240 241 241 241 241 241 241 242 242 242 243 245 246
290 307 312 310 311 312 310 308 305 300 296 292 292 294 295 295 294 293 293 293 293 289 283 274 269 270 273 276 279 282 281 279 270 257 254 256 259 258 255 252 249 247 247 247 249 249 248 248 247 246 245 245 245 245 246 246 246 247 247 247 247 246 247
285 299 301 302 304 301 297 297 297 294 289 284 282 284 289 293 293 293 293 292 292 291 289 285 279 274 274 276 277 279 281 281 276 269 265 263 262 262 261 258 257 256 254 253 254 255 254 253 251 249 248 247 247 248 249 249 250 251 251 251 251 250 250
286 291 291 295 299 295 291 290 292 291 288 283 280 280 284 288 292 294 294 292 291 290 287 285 283 280 277 276 276 278 280 281 279 277 274 270 265 262 261 262 260 258 256 255 255 257 258 259 258 256 253 250 249 248 249 250 250 251 253 254 254 254 254
281 282 283 288 294 295 292 287 287 287 284 282 281 280 281 286 290 294 295 293 291 289 285 283 281 280 280 279 278 278 279 280 280 278 273 271 269 265 262 261 261 261 260 259 259 259 259 259 259 259 258 257 255 253 251 250 250 250 251 253 254 255 257
274 277 281 284 289 294 293 287 282 280 279 280 281 281 282 285 288 292 295 295 293 290 286 284 281 281 281 280 280 278 277 279 280 278 275 271 270 268 265 262 261 261 260 260 260 260 259 259 259 258 258 257 257 256 255 254 253 251 251 251 252 254 256
274 276 277 280 285 290 291 286 279 276 277 278 278 278 281 285 288 290 294 296 296 293 288 285 284 283 281 281 281 281 280 278 278 277 276 274 271 269 266 264 262 261 259 258 258 257 257 257 258 258 258 257 256 256 256 256 255 254 253 253 254 255 256
276 275 273 274 279 285 288 285 278 275 275 277 277 278 283 288 290 291 293 296 298 296 292 288 286 284 283 283 283 282 282 280 278 276 275 275 274 271 268 266 265 263 261 259 258 257 257 257 257 256 256 256 256 257 257 257 257 257 257 257 257 257 258
274 274 272 272 274 278 282 281 277 273 272 274 276 278 283 289 294 295 295 296 297 295 293 290 287 285 285 284 283 282 281 279 278 276 274 272 272 272 270 268 267 265 264 263 261 259 258 257 257 257 256 255 255 255 255 256 258 259 260 260 260 260 261
269 272 271 269 270 272 274 274 272 268 267 269 273 277 282 288 293 294 294 293 293 291 290 288 286 285 284 283 282 282 281 279 278 276 273 271 269 270 271 271 270 268 266 265 263 263 261 260 259 258 258 257 256 255 254 254 255 257 258 259 259 260 260
263 268 269 266 265 266 267 268 267 264 263 266 270 275 281 285 288 291 291 289 287 287 288 287 286 285 284 283 283 281 280 280 280 278 276 274 272 270 270 271 271 270 267 265 264 263 263 262 262 261 260 260 259 259 258 257 256 256 256 256 256 256 256
255 260 265 264 261 261 263 264 264 262 261 264 268 272 278 282 285 287 288 286 285 285 286 287 287 287 287 287 286 284 282 281 280 279 278 278 277 275 274 273 272 272 271 269 267 265 263 261 261 261 262 262 262 262 261 260 260 259 259 258 257 256 256
Height
5859 5857 5856 5856 5855 5854 5854 5855 5855 5855 5854 5853 5852 5853 5853 5852 5853 5853 5853 5853 5855 5857 5858 5859 5860 5862 5863 5864 5866 5868 5869 5870 5871 5872 5873 5873 5874 5876 5879 5881 5882 5883 5884 5886 5887 5888 5889 5891 5893 5895 5896 5898 5900 5902 5904 5906 5908 5909 5911 5913 5914 5916 5918
5859 5857 5855 5855 5854 5853 5852 5853 5854 5853 5852 5851 5851 5851 5851 5851 5851 5851 5851 5853 5853 5855 5856 5857 5858 5859 5860 5862 5864 5866 5867 5868 5870 5871 5871 5872 5873 5874 5876 5878 5880 5881 5882 5884 5886 5887 5888 5889 5891 5893 5895 5897 5898 5900 5902 5904 5906 5908 5910 5911 5913 5915 5916
5857 5856 5854 5853 5852 5851 5851 5852 5852 5852 5851 5850 5849 5849 5849 5849 5849 5849 5850 5851 5852 5852 5854 5855 5856 5857 5858 5860 5862 5863 5865 5866 5868 5869 5869 5870 5870 5871 5873 5875 5878 5880 5881 5883 5884 5886 5887 5887 5889 5891 5893 5895 5897 5899 5901 5902 5904 5906 5908 5910 5911 5913 5915
5856 5854 5853 5852 5850 5849 5849 5850 5850 5850 5850 5849 5848 5847 5847 5846 5847 5848 5848 5849 5850 5850 5851 5852 5853 5854 5856 5858 5860 5861 5863 5864 5865 5866 5867 5868 5868 5869 5871 5873 5876 5877 5879 5881 5882 5883 5884 5885 5887 5889 5891 5893 5895 5897 5899 5901 5902 5904 5906 5908 5909 5911 5913
5855 5853 5851 5851 5849 5848 5847 5848 5848 5848 5848 5847 5846 5846 5845 5845 5845 5846 5845 5846 5847 5847 5848 5849 5850 5852 5854 5856 5857 5859 5860 5862 5863 5864 5865 5866 5867 5867 5869 5871 5873 5874 5876 5879 5880 5880 5882 5883 5885 5887 5889 5892 5894 5896 5898 5899 5901 5902 5904 5906 5908 5910 5911
5853 5851 5850 5851 5849 5847 5845 5845 5846 5847 5846 5846 5845 5845 5844 5843 5843 5843 5843 5844 5845 5844 5845 5846 5848 5850 5852 5854 5854 5856 5858 5859 5861 5862 5863 5864 5865 5866 5867 5868 5870 5872 5874 5876 5877 5878 5879 5881 5883 5885 5888 5890 5893 5895 5896 5898 5899 5901 5902 5904 5906 5908 5910
5851 5849 5850 5851 5849 5846 5843 5842 5843 5844 5845 5845 5844 5843 5842 5842 5841 5841 5841 5842 5842 5842 5842 5844 5846 5849 5850 5851 5852 5854 5855 5857 5859 5860 5861 5863 5864 5864 5865 5866 5869 5871 5873 5875 5875 5876 5877 5880 5882 5884 5886 5889 5891 5893 5894 5896 5898 5899 5900 5902 5904 5906 5908
5849 5848 5849 5850 5848 5846 5844 5841 5840 5842 5843 5843 5843 5842 5841 5840 5840 5839 5839 5839 5839 5839 5840 5842 5844 5846 5848 5849 5850 5852 5854 5855 5856 5858 5859 5861 5862 5862 5863 5865 5867 5869 5871 5873 5873 5874 5876 5879 5881 5883 5885 5887 5889 5890 5892 5894 5896 5897 5899 5900 5902 5904 5906
5847 5846 5846 5847 5846 5845 5843 5840 5837 5839 5841 5842 5842 5841 5840 5839 5838 5838 5837 5837 5837 5837 5838 5840 5842 5843 5845 5847 5849 5851 5852 5853 5855 5856 5858 5859 5859 5860 5861 5863 5865 5867 5869 5871 5872 5873 5875 5877 5879 5881 5883 5885 5887 5889 5891 5892 5894 5895 5897 5899 5900 5902 5904
5847 5847 5846 5846 5845 5843 5841 5839 5836 5836 5838 5840 5840 5840 5839 5838 5838 5837 5836 5836 5835 5836 5837 5838 5839 5841 5843 5845 5847 5849 5850 5852 5854 5855 5856 5857 5858 5859 5860 5861 5863 5864 5866 5868 5870 5871 5873 5875 5877 5879 5881 5883 5885 5887 5889 5891 5892 5894 5895 5897 5898 5900 5902
5846 5847 5846 5845 5844 5842 5841 5840 5836 5834 5836 5838 5838 5838 5838 5838 5837 5837 5836 5835 5835 5835 5837 5838 5839 5840 5842 5843 5845 5847 5849 5851 5853 5854 5855 5856 5857 5857 5858 5860 5862 5863 5864 5866 5868 5869 5871 5873 5875 5877 5879 5880 5882 5884 5886 5888 5890 5891 5893 5895 5897 5899 5900
5845 5844 5844 5844 5842 5842 5843 5843 5839 5836 5834 5835 5836 5836 5837 5836 5836 5836 5835 5835 5835 5835 5836 5838 5838 5839 5841 5842 5844 5845 5847 5849 5851 5853 5854 5854 5855 5856 5857 5859 5861 5862 5863 5865 5867 5868 5869 5871 5873 5875 5876 5878 5880 5882 5884 5886 5887 5889 5891 5893 5895 5897 5899
5844 5843 5842 5842 5841 5842 5843 5844 5842 5840 5836 5833 5833 5833 5834 5835 5835 5835 5835 5835 5835 5835 5836 5838 5839 5839 5841 5842 5844 5846 5847 5848 5849 5850 5851 5852 5853 5854 5856 5858 5859 5861 5862 5864 5865 5866 5868 5870 5871 5872 5874 5876 5877 5879 5881 5883 5885 5887 5889 5891 5893 5895 5897
5843 5842 5841 5840 5841 5842 5843 5843 5842 5840 5837 5835 5833 5832 5832 5833 5833 5834 5835 5836 5836 5836 5837 5838 5839 5840 5841 5841 5843 5844 5845 5846 5847 5848 5849 5850 5851 5853 5855 5856 5858 5859 5861 5863 5864 5866 5867 5868 5869 5871 5872 5874 5876 5877 5879 5881 5883 5885 5887 5889 5891 5893 5895
5842 5841 5840 5840 5841 5841 5841 5842 5840 5839 5838 5836 5835 5834 5833 5833 5833 5833 5834 5835 5836 5835 5835 5837 5838 5839 5840 5840 5841 5842 5843 5844 5845 5847 5848 5849 5851 5852 5853 5855 5856 5858 5860 5862 5863 5865 5866 5867 5868 5870 5871 5872 5874 5875 5877 5879 5881 5883 5885 5887 5889 5891 5893
5841 5840 5840 5840 5840 5840 5840 5839 5838 5838 5838 5836 5835 5835 5835 5834 5834 5833 5834 5835 5835 5834 5834 5835 5836 5838 5839 5840 5841 5842 5843 5844 5845 5846 5847 5848 5850 5851 5851 5853 5855 5857 5859 5861 5862 5863 5864 5865 5866 5867 5869 5870 5872 5873 5875 5877 5879 5881 5883 5884 5886 5888 5890
5840 5840 5840 5840 5839 5839 5838 5836 5835 5835 5836 5835 5834 5835 5835 5835 5834 5834 5836 5837 5836 5834 5834 5834 5835 5837 5838 5839 5840 5842 5843 5844 5844 5845 5846 5847 5849 5850 5851 5851 5853 5855 5856 5858 5860 5860 5861 5863 5864 5865 5866 5868 5869 5871 5872 5874 5876 5878 5880 5882 5883 5885 5887
5839 5840 5840 5839 5838 5837 5836 5834 5833 5835 5835 5835 5834 5834 5834 5834 5834 5834 5836 5837 5837 5835 5834 5833 5833 5834 5835 5837 5838 5840 5841 5842 5843 5844 5845 5845 5847 5849 5850 5850 5851 5852 5854 5856 5858 5858 5859 5860 5861 5862 5864 5865 5867 5869 5870 5872 5874 5876 5877 5879 5880 5882 5884
5838 5839 5839 5838 5837 5835 5833 5833 5834 5835 5836 5834 5833 5834 5834 5835 5835 5834 5834 5835 5836 5836 5835 5834 5833 5833 5833 5835 5836 5837 5838 5840 5842 5843 5844 5845 5847 5848 5849 5849 5849 5850 5852 5854 5855 5856 5856 5857 5859 5860 5862 5864 5865 5867 5868 5870 5871 5873 5875 5876 5878 5879 5881
5838 5838 5838 5837 5835 5832 5832 5833 5835 5835 5836 5834 5834 5834 5834 5834 5835 5834 5834 5834 5835 5835 5835 5835 5834 5833 5832 5833 5834 5835 5836 5837 5839 5841 5843 5845 5846 5847 5848 5848 5849 5849 5850 5852 5853 5855 5855 5856 5857 5858 5860 5862 5863 5865 5866 5867 5869 5870 5872 5873 5874 5876 5877
5838 5837 5837 5835 5833 5831 5831 5833 5834 5834 5835 5835 5834 5834 5834 5834 5834 5834 5834 5833 5833 5834 5834 5835 5834 5833 5832 5832 5832 5833 5834 5835 5836 5838 5840 5842 5843 5844 5845 5847 5848 5848 5847 5848 5850 5852 5854 5855 5857 5858 5859 5861 5862 5863 5864 5865 5867 5868 5869 5870 5871 5872 5874
5837 5836 5835 5834 5832 5830 5831 5833 5833 5833 5834 5834 5834 5834 5833 5833 5833 5833 5833 5833 5833 5833 5833 5833 5833 5833 5832 5832 5832 5832 5832 5833 5835 5837 5838 5840 5841 5842 5842 5843 5846 5847 5847 5847 5849 5851 5853 5854 5856 5858 5859 5860 5861 5862 5864 5865 5866 5866 5867 5868 5869 5870 5871
5835 5835 5833 5832 5830 5829 5831 5833 5833 5833 5833 5833 5833 5833 5833 5833 5833 5833 5833 5833 5833 5833 5832 5832 5832 5832 5832 5832 5833 5833 5832 5833 5834 5835 5836 5838 5840 5841 5840 5841 5843 5845 5847 5848 5849 5850 5851 5853 5855 5856 5857 5858 5859 5860 5862 5863 5865 5866 5867 5868 5868 5869 5869
5833 5834 5833 5830 5829 5829 5831 5832 5832 5832 5832 5832 5832 5832 5832 5832 5833 5833 5833 5833 5833 5832 5832 5832 5831 5831 5831 5831 5831 5833 5835 5835 5834 5834 5835 5837 5839 5840 5840 5839 5841 5843 5845 5847 5848 5848 5849 5851 5852 5854 5856 5856 5857 5859 5860 5861 5862 5864 5865 5865 5866 5867 5867
5831 5832 5831 5830 5829 5829 5831 5832 5832 5831 5831 5831 5831 5832 5832 5832 5832 5832 5832 5832 5832 5832 5832 5832 5831 5831 5830 5829 5828 5830 5834 5836 5835 5834 5835 5835 5836 5838 5838 5838 5839 5840 5842 5844 5846 5847 5848 5849 5850 5852 5853 5854 5855 5856 5858 5858 5860 5861 5862 5863 5863 5864 5865
5831 5831 5830 5828 5828 5828 5828 5830 5831 5830 5830 5830 5830 5831 5831 5831 5831 5831 5831 5831 5831 5831 5831 5831 5831 5830 5829 5827 5826 5826 5830 5833 5834 5833 5832 5832 5833 5834 5836 5837 5838 5838 5839 5841 5842 5844 5846 5847 5848 5849 5850 5851 5852 5853 5855 5856 5856 5858 5859 5860 5860 5861 5862
5829 5829 5829 5827 5826 5826 5827 5828 5830 5830 5830 5830 5830 5830 5830 5831 5831 5830 5830 5830 5830 5830 5830 5830 5830 5828 5827 5826 5825 5825 5828 5831 5833 5833 5832 5832 5832 5833 5834 5835 5836 5837 5837 5838 5839 5840 5842 5843 5845 5846 5846 5847 5849 5850 5852 5853 5854 5854 5855 5856 5856 5857 5857
5827 5828 5828 5827 5826 5826 5826 5828 5829 5829 5830 5830 5830 5829 5829 5829 5829 5829 5829 5829 5829 5829 5829 5829 5828 5827 5826 5826 5825 5825 5826 5829 5831 5832 5832 5832 5833 5833 5834 5834 5835 5835 5836 5836 5836 5837 5838 5839 5841 5842 5843 5844 5845 5846 5848 5849 5850 5851 5851 5852 5853 5853 5854
5826 5827 5827 5827 5826 5826 5826 5827 5827 5828 5828 5829 5829 5828 5828 5828 5828 5828 5828 5827 5827 5827 5827 5827 5827 5826 5825 5825 5824 5824 5825 5826 5828 5829 5830 5830 5831 5831 5831 5831 5832 5833 5833 5834 5834 5834 5835 5836 5837 5838 5839 5840 5841 5842 5843 5844 5845 5846 5847 5848 5849 5849 5850
5824 5825 5826 5826 5825 5825 5825 5826 5826 5826 5826 5827 5827 5827 5827 5826 5826 5826 5826 5826 5826 5826 5825 5825 5825 5825 5824 5824 5823 5823 5823 5824 5825 5826 5827 5827 5828 5828 5829 5829 5830 5830 5831 5831 5832 5832 5833 5833 5834 5835 5836 5836 5837 5838 5839 5840 5841 5842 5843 5843 5844 5845 5846
5822 5823 5824 5824 5824 5824 5824 5824 5824 5824 5824 5825 5826 5826 5826 5825 5824 5824 5824 5824 5824 5824 5824 5823 5823 5823 5822 5822 5822 5822 5821 5821 5822 5823 5824 5824 5825 5826 5827 5827 5828 5828 5828 5829 5829 5830 5830 5831 5831 5832 5833 5833 5834 5835 5836 5836 5837 5838 5839 5839 5839 5840 5841
5820 5821 5821 5822 5822 5822 5822 5822 5822 5822 5823 5823 5824 5824 5824 5824 5823 5822 5822 5822 5822 5822 5822 5821 5821 5821 5820 5820 5820 5820 5820 5820 5820 5820 5821 5822 5822 5823 5824 5824 5825 5825 5825 5826 5826 5827 5827 5828 5828 5829 5830 5830 5831 5831 5832 5833 5834 5834 5835 5835 5835 5836 5837
5818 5818 5819 5819 5819 5820 5820 5820 5820 5820 5821 5821 5822 5822 5823 5822 5822 5821 5820 5820 5820 5820 5820 5820 5819 5819 5819 5818 5818 5818 5818 5818 5818 5818 5818 5819 5819 5820 5820 5821 5822 5822 5823 5823 5823 5824 5824 5824 5825 5825 5826 5827 5827 5828 5828 5829 5829 5830 5830 5830 5831 5832 5833
5815 5816 5817 5817 5818 5818 5818 5818 5818 5818 5819 5819 5820 5820 5821 5820 5820 5819 5819 5818 5818 5818 5818 5818 5817 5817 5817 5816 5816 5816 5816 5816 5816 5816 5816 5816 5816 5816 5817 5818 5818 5819 5819 5820 5820 5820 5820 5821 5821 5822 5822 5823 5823 5824 5824 5824 5824 5825 5825 5826 5827 5827 5828
5813 5814 5814 5815 5816 5816 5815 5815 5816 5816 5817 5817 5818 5818 5818 5818 5818 5818 5817 5817 5816 5816 5816 5816 5815 5815 5815 5814 5814 5814 5814 5813 5814 5814 5814 5814 5814 5813 5814 5814 5815 5815 5816 5816 5816 5816 5817 5817 5817 5818 5818 5819 5819 5820 5820 5820 5819 5820 5820 5821 5821 5822 5822
5811 5811 5812 5812 5813 5813 5813 5813 5814 5814 5815 5815 5815 5816 5816 5816 5816 5815 5815 5815 5814 5814 5814 5814 5813 5813 5813 5812 5812 5812 5811 5811 5811 5811 5811 5811 5811 5811 5811 5811 5811 5811 5812 5812 5812 5812 5813 5813 5813 5814 5814 5814 5815 5815 5815 5816 5815 5815 5815 5816 5816 5816 5817
5808 5808 5809 5810 5811 5811 5811 5811 5812 5812 5812 5813 5813 5813 5813 5813 5813 5813 5813 5813 5812 5812 5812 5811 5811 5811 5811 5810 5810 5809 5809 5808 5808 5808 5808 5808 5808 5808 5808 5808 5807 5807 5808 5808 5808 5808 5808 5809 5809 5809 5809 5809 5810 5810 5810 5811 5811 5810 5810 5810 5811 5811 5811
5804 5805 5806 5807 5808 5808 5808 5809 5809 5809 5809 5810 5810 5811 5811 5811 5811 5811 5811 5811 5810 5810 5809 5809 5809 5809 5808 5808 5807 5807 5806 5806 5806 5805 5805 5805 5804 5805 5805 5805 5804 5804 5804 5804 5804 5804 5804 5804 5804 5804 5804 5805 5805 5805 5805 5805 5805 5805 5805 5805 5805 5805 5806